MST,Max TemperatureF,Mean TemperatureF,Min TemperatureF,Max Dew PointF,MeanDew PointF,Min DewpointF,Max Humidity, Mean Humidity, Min Humidity, Max Sea Level PressureIn, Mean Sea Level PressureIn, Min Sea Level PressureIn, Max VisibilityMiles, Mean VisibilityMiles, Min VisibilityMiles, Max Wind SpeedMPH, Mean Wind SpeedMPH, Max Gust SpeedMPH,PrecipitationIn, CloudCover, Events, WindDirDegrees
2012-10-1,102,86,69,39,32,25,33,14,6,29.95,29.87,29.81,20,20,20,10,6,,0.00,0,,58
2012-10-2,102,86,69,37,34,27,29,16,7,29.92,29.86,29.78,20,20,20,12,3,,0.00,0,,196
2012-10-3,100,84,68,45,40,36,38,19,11,29.96,29.91,29.86,20,20,20,8,3,,0.00,3,,172
2012-10-4,96,84,71,52,43,37,50,24,14,30.05,29.99,29.93,20,20,20,7,2,,0.00,5,,201
2012-10-5,95,80,64,45,39,30,45,23,11,30.03,29.96,29.87,20,20,20,6,2,,0.00,3,,264
2012-10-6,91,81,71,41,39,37,33,20,15,29.94,29.88,29.81,20,20,20,6,2,,0.00,6,,203
2012-10-7,93,82,71,45,41,37,38,22,14,29.92,29.87,29.81,20,20,20,9,5,,0.00,2,,112
2012-10-8,93,80,66,46,44,43,43,27,17,29.95,29.90,29.83,20,20,20,8,4,,0.00,1,,97
2012-10-9,91,80,69,54,50,48,56,33,24,29.98,29.90,29.84,20,20,20,8,3,,0.00,1,,188
2012-10-10,91,78,66,54,47,43,60,30,18,29.98,29.89,29.79,20,20,20,12,5,20,0.00,1,,114
2012-10-11,89,81,73,55,51,43,50,36,21,29.89,29.84,29.77,20,20,20,21,7,29,0.00,6,,146
2012-10-12,75,68,62,45,40,36,52,35,24,30.09,30.05,29.97,20,20,20,10,8,18,0.00,3,,200
2012-10-13,82,70,57,43,39,37,48,32,20,30.19,30.11,30.02,20,20,20,8,5,,0.00,0,,348
2012-10-14,91,76,60,46,41,36,55,27,14,30.10,30.02,29.93,20,20,20,8,4,,0.00,1,,105
2012-10-15,93,78,62,41,35,30,39,19,11,29.98,29.91,29.83,20,20,20,7,3,,0.00,1,,102
2012-10-16,93,78,62,41,36,34,40,21,13,29.90,29.82,29.74,20,20,20,9,3,,0.00,1,,163
2012-10-17,91,76,62,43,38,34,45,23,13,29.90,29.85,29.82,20,20,20,12,4,,0.00,2,,165
2012-10-18,89,78,66,64,46,32,58,33,13,30.06,29.98,29.92,20,20,20,13,3,17,0.00,3,,211
2012-10-19,91,76,62,45,40,34,46,25,14,29.97,29.88,29.80,20,20,20,12,4,16,0.00,0,,223
2012-10-20,89,74,60,41,38,36,42,22,15,29.87,29.80,29.73,20,20,20,10,3,18,0.00,2,,186
2012-10-21,87,76,64,54,48,45,49,33,24,29.86,29.82,29.77,20,20,20,16,4,21,0.00,2,,213
2012-10-22,82,73,64,54,52,48,64,43,30,29.95,29.90,29.85,20,20,20,9,2,,0.00,1,,210
2012-10-23,82,72,62,55,50,46,64,42,28,29.92,29.87,29.81,20,20,20,8,3,16,0.00,4,,193
2012-10-24,80,70,60,45,36,28,52,29,15,29.93,29.89,29.86,20,20,20,13,5,17,0.00,1,,220
2012-10-25,84,68,53,34,23,9,38,18,6,30.05,29.98,29.91,20,20,20,10,3,,0.00,0,,170
2012-10-26,82,73,64,19,13,5,18,10,5,30.09,30.00,29.92,20,20,20,17,12,23,0.00,0,,344
2012-10-27,84,68,53,25,22,14,25,15,11,30.01,29.93,29.82,20,20,20,7,1,,0.00,0,,57
2012-10-28,87,70,53,32,27,23,44,18,9,30.02,29.97,29.92,20,20,20,5,1,,0.00,1,,99
2012-10-29,89,72,55,34,30,28,41,21,11,30.12,30.05,29.99,20,20,20,5,2,,0.00,0,,220
2012-10-30,87,70,53,36,31,23,44,22,9,30.08,30.01,29.94,20,20,20,7,1,,0.00,0,,195
2012-10-31,87,70,53,36,30,23,47,24,9,30.04,29.98,29.91,20,20,20,5,2,,0.00,3,,228